Weather in Gallipoli

Italy     40°03′17″N   17°59′46″E
temp.,
°C
wind,
m/s
gust,
m/s
humid.,
%
clouds,
%
prec.,
mm/h
press.,
hPa
HPBL,
m
3 august, tue
tue323:00+28ne34620 0.0 101465
02:00+27n11674 0.0 101313
05:00+28nnw12685 0.0 101317
08:00+28nne45595 0.0 1014180
11:00+31n66495 0.0 1015256
14:00+33nne78395 0.0 1015303
17:00+30ssw76615 0.0 1013224
20:00+28sw45735 0.0 101495
4 august, wed
wed423:00+28ssw577037 0.0 1014116
02:00+28sw337210 0.0 101436
05:00+28ene33705 0.0 101333
08:00+29ne565781 0.0 1015118
11:00+31s44545 0.0 1014205
14:00+29s78685 0.0 1014293
17:00+29s710710 0.0 1012289
20:00+28sse710800 0.0 1012210
5 august, thu
thu523:00+28s710810 0.0 1012162
02:00+28s69841 0.0 1010128
05:00+27sse68860 0.0 1009155
08:00+28sse810805 0.0 1009239
11:00+30ssw57664 0.0 1009175
14:00+30wsw5105831 0.0 1008211
17:00+30w7116055 0.0 1007237
20:00+30w10146071 0.0 1007229
6 august, fri
fri623:00+28wnw71062100 0.0 1008330
02:00+27wnw61065100 0.0 1007441
05:00+26nnw711557 0.0 1007702
08:00+26nw1012485 0.0 1008942
11:00+28wnw775411 0.0 1008696
14:00+28w66550 0.0 1008445
17:00+29nnw33500 0.0 1007423
20:00+28n12590 0.0 100861
7 august, sat
sat723:00+26n46590 0.0 1010459
02:00+25nnw68660 0.0 1009528
05:00+25n69700 0.0 1010475
08:00+26n68640 0.0 1010664
11:00+28nw57550 0.0 1011432
14:00+29wnw56545 0.0 1010467
17:00+30nw45504 0.0 1010316
20:00+29nne33500 0.0 101119